Flag for Canada Weather past 2 weeks in Thunder Bay, Ontario, Canada

Now
75 °F

Overcast.


Feels Like: 77 °F
Forecast: N/A
Wind: 8 mph from South

Location: Thunder Bay

Current Time: Jul 5, 2015 at 7:35:09 PM

Latest Report: Jul 5, 2015 at 7:00 PM


Visibility: 15 mi

Pressure: 29.79 "Hg

Humidity: 65%

Dew point: 63 °F

Location of Thunder BayLocation

Historic Weather in Thunder Bay — Graph

°F

Thunder Bay temperature yesterday

Maximum temperature yesterday: 73 °F (at 3:00 PM)
Minimum temperature yesterday: 50 °F (at 4:00 AM)
Average temperature yesterday: 62 °F

Past Weeks' High & Low Weather Summary

 TemperatureHumidityPressure
High81 °F (Jun 26, 4:00 PM)100% (Jun 20, 11:00 PM)30.14 "Hg (Jun 20, 11:00 PM)
Low39 °F (Jul 1, 6:00 AM)36% (Jun 26, 7:00 PM)29.59 "Hg (Jun 22, 5:00 PM)
Average60 °F81%29.92 "Hg
* Reported Jun 20 6:00 PM — Jul 5 6:00 PM, Thunder Bay, Weather by CustomWeather, © 2015

Note: Actual official high and low records may vary slightly from our data, if they occured in-between our weather recording intervals... More about our weather records

Advertising

Thunder Bay weather history for previous 24 hours

 ConditionsComfort  
Time TempWeatherWind HumidityBarometerVisibility
6:00 PM
Sun, Jul 5
79 °FPartly sunny.13 mph58%29.81 "Hg15 mi
5:00 PM79 °FOvercast.17 mph61%29.83 "Hg15 mi
4:00 PM72 °FHigh level clouds.7 mph73%29.85 "Hg12 mi
3:00 PM68 °FOvercast.12 mph73%29.88 "Hg10 mi
2:00 PM66 °FOvercast.10 mph73%29.88 "Hg10 mi
1:00 PM66 °FHigh level clouds.10 mph73%29.89 "Hg10 mi
12:00 PM64 °FHigh level clouds.8 mph78%29.91 "Hg12 mi
11:00 AM63 °FHigh level clouds.8 mph77%29.92 "Hg12 mi
10:00 AM61 °FOvercast.7 mph83%29.93 "Hg10 mi
9:00 AM59 °FOvercast.7 mph88%29.91 "Hg12 mi
8:00 AM57 °FHigh level clouds.7 mph88%29.90 "Hg12 mi
7:00 AM54 °FPassing clouds.3 mph100%29.92 "Hg12 mi
6:00 AM54 °FPassing clouds.8 mph94%29.90 "Hg15 mi
5:00 AM52 °FClear.3 mph94%29.91 "Hg15 mi
4:00 AM50 °FClear.No wind100%29.92 "Hg15 mi
3:00 AM52 °FClear.2 mph94%29.93 "Hg12 mi
2:00 AM52 °FClear.2 mph94%29.95 "Hg15 mi
1:00 AM54 °FClear.2 mph100%29.96 "Hg15 mi
12:00 AM57 °FPassing clouds.2 mph94%29.98 "Hg15 mi
11:00 PM
Sat, Jul 4
57 °FPassing clouds.5 mph94%29.97 "Hg15 mi
10:00 PM61 °FPartly sunny.3 mph72%29.94 "Hg15 mi
9:00 PM64 °FPartly sunny.7 mph68%29.93 "Hg20 mi
8:00 PM68 °FHigh level clouds.7 mph64%29.95 "Hg20 mi
7:00 PM70 °FPartly sunny.8 mph64%29.96 "Hg20 mi
Weather by CustomWeather, © 2015

See weather overviewHow to use our weather pages